www.pogodaiklimat.ru

Погода и климат >> Архив погоды >> Австралия >> Южная Австралия >> Таркула


ПОГОДА в Таркуле

  • Прогноз погоды в Таркуле
  • Монитор погоды в Таркуле

АРХИВ ПОГОДЫ в Таркуле

Время (UTC), дата Ветер
(напр.,м/с)
 
Видим.   Явления Облачность Т
(С)
Тd
(С)
f
(%)
Тe
(С)
Тes
(С)
Комфортность P
(гПа)
Po
(гПа)
Тmin
(С)
Tmax
(С)
R
(мм)
R24
(мм)
S
(см)
13 15.09 ЮЗ 6 н/о н/о +23.3 -0.9 20 +22 +22 комфорт 1016.7 1002.1
14 15.09 ЮЗ 4 н/о н/о +21.3 +2.6 29 +21 +21 комфорт 1017.1 1002.5 +35.9
16 15.09 ЮЗ 7 н/о н/о +18.5 +8.2 51 +18 +18 1017.8 1003.2
17 15.09 ЮЗ 5 н/о н/о +16.9 +9.8 63 +16 +16 1018.2 1003.6
19 15.09 ЮЗ 6 н/о н/о +15.9 +11.1 73 +15 +15 1017.8 1003.2
20 15.09 Ю 6 н/о н/о +15.5 +11.3 76 +14 +14 1018.8 1004.2
22 15.09 Ю 6 н/о н/о +15.5 +11.1 75 +14 +14 1020.4 1005.7
23 15.09 Ю 7 н/о н/о +16.8 +11.1 69 +16 +16 1021.0 1006.3
01 16.09 Ю 8 н/о н/о +17.8 +11.4 66 +17 +17 1022.1 1007.4
02 16.09 Ю 8 н/о н/о +19.0 +7.4 47 +19 +19 1022.2 1007.5 +15.1
04 16.09 Ю 8 н/о н/о +21.5 +4.6 33 +22 +22 комфорт 1021.8 1007.1
05 16.09 Ю 8 н/о н/о +22.1 +2.2 27 +22 +22 комфорт 1021.4 1006.7
07 16.09 Ю 7 н/о н/о +21.7 +0.8 25 +21 +21 комфорт 1021.8 1007.1
08 16.09 Ю 8 н/о н/о +20.7 +1.6 28 +20 +20 1022.3 1007.6
10 16.09 Ю 5 н/о н/о +17.9 +0.6 31 +18 +18 1023.8 1009.1
11 16.09 Ю 5 н/о н/о +17.2 +2.4 37 +17 +17 1024.7 1010.0
13 16.09 ЮВ 7 н/о н/о +15.2 +2.4 42 +14 +14 1025.2 1010.5
14 16.09 ЮВ 6 н/о н/о +14.1 +1.4 42 +12 +12 1025.2 1010.5 +26.4
16 16.09 ЮВ 7 н/о н/о +12.1 +1.7 49 +10 +10 1025.3 1010.6
17 16.09 ЮВ 5 н/о н/о +11.0 +2.1 54 +9 +9 1025.0 1010.3
19 16.09 ЮВ 3 н/о н/о +8.9 +2.0 62 +7 +7 1024.7 1010.0
20 16.09 ЮВ 3 н/о н/о +7.6 +1.5 65 +5 +5 1025.2 1010.5
22 16.09 В 5 н/о н/о +9.9 +3.0 62 +7 +7 1025.9 1011.2
23 16.09 В 7 н/о н/о +12.6 +1.9 48 +10 +10 1026.6 1011.8
01 17.09 В 6 н/о н/о +15.6 -0.2 34 +14 +14 1027.0 1012.2
02 17.09 В 6 н/о н/о +17.2 -1.4 28 +16 +16 1026.3 1011.6 +6.3
04 17.09 СВ 5 н/о н/о +20.0 -3.0 21 +20 +20 1024.4 1009.7
05 17.09 СВ 4 н/о н/о +21.4 -3.9 18 +20 +20 1023.6 1008.9
07 17.09 В 4 н/о н/о +22.1 -6.6 14 +21 +21 комфорт 1022.8 1008.1
08 17.09 В 4 н/о н/о +22.1 -6.6 14 +21 +21 комфорт 1022.9 1008.2
10 17.09 В 3 н/о н/о +17.0 -7.5 18 +17 +17 1023.7 1009.0
11 17.09 В 4 н/о н/о +16.8 -6.9 19 +17 +17 1023.9 1009.2
13 17.09 В 5 н/о н/о +15.9 -6.4 21 +15 +15 1023.8 1009.1
14 17.09 В 4 н/о н/о +14.5 -6.9 22 +14 +14 1023.5 1008.8 +23.0
16 17.09 СВ 5 н/о н/о +12.5 -6.5 26 +11 +11 1023.2 1008.5
17 17.09 СВ 4 н/о н/о +12.3 -6.6 26 +11 +11 1022.7 1008.0
19 17.09 В 5 н/о н/о +10.9 -6.4 29 +9 +9 1022.0 1007.3
20 17.09 СВ 7 н/о н/о +12.1 -5.8 28 +10 +10 1021.6 1006.9
22 17.09 СВ 8 н/о н/о +13.1 -5.4 27 +11 +11 1022.5 1007.8
23 17.09 СВ 8 н/о н/о +15.6 -6.0 22 +14 +14 1023.0 1008.3
01 18.09 С 10 н/о н/о +20.5 -8.8 13 +19 +19 1021.8 1007.1
02 18.09 С 9 н/о н/о +21.9 -9.9 11 +20 +20 1021.1 1006.4 +9.9
04 18.09 СВ 9 н/о н/о +25.5 -9.7 9 +23 +23 комфорт 1018.9 1004.3
05 18.09 СВ 9 н/о н/о +25.2 -9.9 9 +22 +22 комфорт 1017.6 1003.0
07 18.09 СВ 9 н/о н/о +27.4 -8.2 9 +24 +24 комфорт 1015.9 1001.3
08 18.09 СВ 10 н/о н/о +26.5 -8.9 9 +23 +23 комфорт 1015.4 1000.8
10 18.09 СВ 6 н/о н/о +23.9 -10.9 9 +21 +21 комфорт 1015.7 1001.1
11 18.09 СВ 7 н/о н/о +23.4 -11.2 9 +21 +21 комфорт 1015.9 1001.3
13 18.09 СВ 9 н/о н/о +20.7 -10.8 11 +19 +19 1014.9 1000.3
14 18.09 СВ 7 н/о н/о +19.7 -10.5 12 +19 +19 1014.6 1000.0 +28.3
16 18.09 СВ 9 н/о н/о +19.7 -11.5 11 +18 +18 1012.5 997.9
17 18.09 С 8 н/о н/о +19.3 -11.9 11 +18 +18 1012.2 997.7
19 18.09 С 9 н/о н/о +19.5 -12.9 10 +18 +18 1011.5 997.0
20 18.09 С 8 н/о н/о +19.2 -13.1 10 +18 +18 1011.6 997.1
22 18.09 С 9 н/о н/о +20.0 -13.8 9 +19 +19 1012.1 997.6
23 18.09 С 9 н/о н/о +20.6 -13.3 9 +19 +19 1011.7 997.2
01 19.09 С 11 н/о н/о +28.5 -10.6 7 +25 +25 комфорт 1009.8 995.3
02 19.09 С 11 н/о н/о +31.7 -8.3 7 +28 +28 жарко 1008.6 994.1 +17.9
04 19.09 С 10 н/о н/о +36.6 -4.7 7 +32 +32 жарко 1005.8 991.3
05 19.09 С 10 н/о н/о +37.2 -4.3 7 +33 +33 жарко 1004.3 989.9
07 19.09 СЗ 9 н/о н/о +35.3 -3.9 8 +31 +31 жарко 1003.0 988.6
08 19.09 С 12 н/о н/о +35.0 -4.1 8 +31 +31 жарко 1003.5 989.1
10 19.09 ЮЗ 9 н/о н/о +22.9 +4.9 31 +23 +23 комфорт 1007.6 993.1
11 19.09 ЮЗ 12 н/о н/о +20.7 +7.0 41 +21 +21 комфорт 1009.8 995.3
13 19.09 ЮЗ 10 н/о н/о +18.2 +9.3 56 +17 +17 1010.9 996.4
14 19.09 Ю 10 н/о н/о +17.6 +9.2 58 +16 +16 1010.4 995.9 +37.9
16 19.09 Ю 9 н/о н/о +15.8 +8.8 63 +14 +14 1011.2 996.7
17 19.09 ЮЗ 6 н/о н/о +15.0 +8.5 65 +13 +13 1012.5 997.9
19 19.09 Ю 7 н/о н/о +13.1 +8.0 71 +11 +11 1012.9 998.3
20 19.09 ЮЗ 6 н/о в посл. час дождь {туман} н/о +12.1 +9.8 86 +9 +9 1013.8 999.2
22 19.09 Ю 7 н/о н/о +11.0 +8.8 86 +8 +8 1014.6 1000.0
23 19.09 ЮЗ 3 н/о туман местами н/о +10.9 +9.3 90 +9 +9 1015.9 1001.3 6
01 20.09 ЮЗ 5 н/о н/о +10.5 +8.4 87 +7 +7 1016.4 1001.8
02 20.09 З 6 н/о туман местами н/о +10.5 +8.8 89 +7 +7 1017.7 1003.1 +10.5
04 20.09 З 4 н/о н/о +10.1 +8.0 87 +8 +8 1016.7 1002.1
05 20.09 З 4 н/о {туман} н/о +10.8 +8.4 85 +8 +8 1016.5 1001.9 6
07 20.09 З 6 н/о н/о +11.9 +7.8 76 +9 +9 1016.5 1001.9
08 20.09 ЮЗ 7 н/о {туман} н/о +12.4 +7.3 71 +10 +10 1017.2 1002.6
10 20.09 З 5 н/о н/о +11.0 +6.7 75 +8 +8 1018.9 1004.3
11 20.09 З 4 н/о {туман} н/о +10.2 +5.8 74 +8 +8 1020.0 1005.3 0.2
13 20.09 З 4 н/о н/о +9.1 +5.3 77 +6 +6 1020.4 1005.7
14 20.09 З 5 н/о н/о +8.5 +5.3 80 +5 +5 1020.7 1006.0 +19.6
16 20.09 ЮЗ 4 н/о н/о +7.4 +4.5 82 +4 +4 1020.2 1005.5
17 20.09 З 4 н/о н/о +6.7 +4.4 85 +3 +3 1020.1 1005.4
19 20.09 З 4 н/о н/о +6.0 +4.2 88 +2 +2 1020.6 1005.9
20 20.09 З 3 н/о н/о +5.7 +3.9 88 +2 +2 1021.4 1006.7
22 20.09 З 4 н/о н/о +7.5 +5.0 84 +4 +4 1023.0 1008.3
23 20.09 З 5 н/о н/о +9.7 +5.5 75 +7 +7 1023.8 1009.1 7
01 21.09 З 6 н/о н/о +13.0 +5.2 59 +11 +11 1024.4 1009.7
02 21.09 ЮЗ 6 н/о н/о +14.3 +5.1 54 +13 +13 1024.1 1009.4 +5.4
04 21.09 З 7 н/о н/о +16.4 +2.4 39 +15 +15 1023.9 1009.2
05 21.09 ЮЗ 5 н/о {туман} н/о +15.3 +4.7 49 +14 +14 1023.4 1008.7 0.2
07 21.09 З 4 н/о н/о +15.8 +2.2 40 +15 +15 1023.4 1008.7
08 21.09 Ю 5 н/о н/о +15.4 +3.2 44 +14 +14 1023.8 1009.1
10 21.09 Ю 3 н/о н/о +12.5 +5.4 62 +11 +11 1024.9 1010.2
11 21.09 З 2 н/о н/о +11.0 +6.6 74 +10 +10 1025.6 1010.9
13 21.09 ЮЗ 3 н/о н/о +8.9 +5.8 81 +6 +6 1026.8 1012.0
14 21.09 ЮЗ 2 н/о н/о +8.0 +5.8 86 +6 +6 1027.0 1012.2 +17.5
16 21.09 ЮЗ 3 н/о н/о +6.3 +4.5 88 +3 +3 1026.7 1011.9
17 21.09 штиль 0 н/о н/о +6.0 +4.5 90 +5 +5 1026.3 1011.6
19 21.09 штиль 0 н/о н/о +4.7 +3.4 91 +4 +4 1026.7 1011.9
20 21.09 штиль 0 н/о н/о +4.4 +3.2 92 +3 +3 1027.5 1012.7
22 21.09 штиль 0 н/о н/о +7.2 +5.2 87 +6 +6 1028.7 1013.9
23 21.09 З 2 н/о н/о +11.1 +6.6 74 +10 +10 1029.3 1014.5 0.2
01 22.09 З 4 н/о н/о +14.7 +5.0 52 +14 +14 1029.8 1015.0
02 22.09 З 5 н/о н/о +15.9 +4.3 46 +15 +15 1029.4 1014.6 +3.6
04 22.09 З 6 н/о н/о +18.4 +3.1 36 +18 +18 1027.9 1013.1
05 22.09 З 6 н/о н/о +19.8 +2.6 32 +20 +20 1027.3 1012.5
07 22.09 З 6 н/о н/о +19.5 +1.0 29 +19 +19 1027.1 1012.3
08 22.09 ЮЗ 7 н/о н/о +18.9 +1.0 30 +18 +18 1027.4 1012.6
10 22.09 ЮЗ 3 н/о н/о +14.9 +2.8 44 +15 +15 1028.8 1014.0
11 22.09 Ю 4 н/о н/о +14.8 +4.2 49 +14 +14 1030.0 1015.2
13 22.09 Ю 4 н/о н/о +12.8 +6.2 64 +11 +11 1030.8 1016.0

 

Местоположение метеостанции Таркула (Южная Австралия, Австралия): широта -30.72 долгота 134.58 высота над уровнем моря 124 м.

В архиве по умолчанию представлена погода в Таркуле за последнюю неделю. Архивные данные за месяц целиком и за предыдущие месяцы, начиная с января 2011 года, Вы можете получить, выбрав интересующий диапазон дат из раскрывающегося списка и нажав кнопку "Ввод!".


*Определитесь, кто Вы:
робот инопланетянин человек

Внимание! Время в таблицах - всемирное. Для получения местного времени необходимо прибавить поправку, которая равна 9.5 ч.

Смотрите также архив погоды в соседних городах и на ближайших метеорологических станциях:

Погода в Сидуне (Южная Австралия, Австралия) (178 км)
Погода в Кубер-Педи (Южная Австралия, Австралия) (188 км)
Погода на Аэродроме Вумера (Южная Австралия, Австралия) (218 км)
Погода в Олимпик Дэм (Южная Австралия, Австралия) (222 км)
Погода в Миннипа Пирса (Южная Австралия, Австралия) (243 км)
Погода в Уудинне (Южная Австралия, Австралия) (272 км)
Погода в Марри (Южная Австралия, Австралия) (355 км)
Погода в Порт Огаста (Южная Австралия, Австралия) (358 км)
Погода в Наллаборе (Южная Австралия, Австралия) (360 км)
Погода в Однадатте (Южная Австралия, Австралия) (363 км)

Пояснения к столбцам:

Ветер - указаны скорость ветра в м/с - средняя за 10 мин, порывы в срок и между сроками (в фигурных скобках) и направление, откуда дует ветер: С - северный, СВ - северо-восточный, В - восточный, ЮВ - юго-восточный, Ю - южный, ЮЗ - юго-западный, З - западный, СЗ - северо-западный.
Видимость - горизонтальная дальность видимости в метрах или километрах. При видимости от 1 до 10 км при отсутствии осадков обычно наблюдается дымка, при ухудшении видимости до 1 км и менее - туман. В сухую погоду видимость может ухудшаться дымом, пылью или мглою.
Явления - указаны атмосферные явления, наблюдавшиеся в срок или в последний час перед сроком; фигурными скобками обозначены явления, наблюдавшиеся между сроками (за 1-3 часа до срока); квадратными скобками обозначены град или гололедные отложения с указанием их диаметра в мм.
Облачность - указаны через наклонную черту общая и нижняя облачность в баллах и высота нижней границы облаков в метрах; квадратными скобками обозначены формы облаков: Ci - перистые, Cs - перисто-слоистые, Cc - перисто-кучевые, Ac - высококучевые, As - высокослоистые, Sc - слоисто-кучевые, Ns - слоисто-дождевые, Cu - кучевые, Cb - кучево-дождевые. Подробнее классификацию облаков см. в Атласе облаков (PDF).
T - Температура воздуха - температура, измеренная на высоте 2 м над землей.
Td - Температура точки росы - температура, при понижении до которой содержащийся в воздухе водяной пар достигнет насыщения.
f - Относительная влажность воздуха - влажноcть воздуха, измеренная на высоте 2 м над землей.
Te - Эффективная температура - температура, которую ощущает одетый по сезону человек в тени. Характеристика душности погоды. При расчете учитывается влияние влажности воздуха и скорости ветра на теплоощущения человека.
Tes - Эффективная температура на солнце - температура, которую ощущает человек, с поправкой на солнечный нагрев. Характеристика знойности погоды. Зависит от высоты солнца над горизонтом, облачности и скорости ветра. Ночью, в пасмурную погоду, а также при ветре 12 м/с и более поправка равна нулю.
P - Атмосферное давление - приведенное к уровню моря атмосферное давление.
Po - Атмосферное давление - измеренное на уровне метеостанции атмосферное давление.
Tmin - Минимальная температура - минимум температуры воздуха на высоте 2 м над землей.
Tmax - Максимальная температура - максимум температуры воздуха на высоте 2 м над землей.
R - Количество осадков - Количество выпавших осадков за период времени, мм. При наведении курсора мыши на число - период времени, за который выпало указанное количество осадков.
R24 - Количество осадков - Количество выпавших осадков за 24 часа, мм.
S - Снежный покров - Высота снежного покрова, см. При наведении курсора мыши на число - состояние снежного покрова и степень покрытия местности в баллах.